Location: *
(42.0175°N, 9.4056°E)
Time: 22:37:59
(UTC+00:00)

Cosmos 2098 Rocket - Pass Details

Date: 25 August 2019
Orbit: 368 x 1192 km, 82.9° (Epoch: 21 September)

Event Time Altitude Azimuth Distance (km) Brightness Sun altitude
Rises 20:12:46 0° 349° (N) 3,050 7.4 -21.5°
Reaches altitude 10° 20:14:51 10° 347° (NNW) 2,245 6.6 -21.8°
Maximum altitude 20:19:55 69° 265° (W) 922 3.9 -22.5°
Enters shadow 20:23:32 26° 188° (S) 1,790 5.1 -23.0°
